| time (UTC) | temp C | wind direction | speed KPH | gust KPH | rain 1hr cm | rain 24hr cm | rain mn cm | humidity % | barometer mb |
| 20260906134643 | 14 | 167 | 0.0 | 0.0 | 0.00 | 0.00 | 0.00 | 71 | 986.6 |
| 20260906134144 | 14 | 167 | 0.0 | 0.0 | 0.00 | 0.00 | 0.00 | 72 | 986.5 |
| 20260906133643 | 14 | 167 | 0.0 | 0.0 | 0.00 | 0.00 | 0.00 | 72 | 986.5 |
| 20260906133144 | 13 | 167 | 0.0 | 0.0 | 0.00 | 0.00 | 0.00 | 72 | 986.4 |
| 20260906132644 | 13 | 177 | 0.0 | 0.0 | 0.00 | 0.00 | 0.00 | 73 | 986.4 |
| 20260906132144 | 13 | 178 | 0.0 | 0.0 | 0.00 | 0.00 | 0.00 | 74 | 986.4 |
| 20260906131647 | 12 | 178 | 0.0 | 0.0 | 0.00 | 0.00 | 0.00 | 75 | 986.4 |
| 20260906131643 | 13 | 178 | 0.0 | 0.0 | 0.00 | 0.00 | 0.00 | 74 | 986.4 |
| 20260906130643 | 12 | 178 | 0.0 | 0.0 | 0.00 | 0.00 | 0.00 | 75 | 986.4 |
| 20260906130143 | 12 | 178 | 0.0 | 0.0 | 0.00 | 0.00 | 0.00 | 75 | 986.4 |
| 20260906125643 | 12 | 177 | 0.0 | 0.0 | 0.00 | 0.00 | 0.00 | 75 | 986.4 |
| 20260906125148 | 12 | 178 | 0.0 | 0.0 | 0.00 | 0.00 | 0.00 | 75 | 986.3 |
| 20260906125144 | 12 | 177 | 0.0 | 0.0 | 0.00 | 0.00 | 0.00 | 75 | 986.3 |
| 20260906124144 | 12 | 176 | 0.0 | 0.0 | 0.00 | 0.00 | 0.00 | 74 | 986.3 |
| 20260906123644 | 12 | 176 | 0.0 | 0.0 | 0.00 | 0.00 | 0.00 | 74 | 986.4 |
| 20260906123144 | 12 | 176 | 0.0 | 0.0 | 0.00 | 0.00 | 0.00 | 74 | 986.3 |
| 20260906122647 | 12 | 176 | 0.0 | 0.0 | 0.00 | 0.00 | 0.00 | 74 | 986.1 |
| 20260906122643 | 12 | 176 | 0.0 | 0.0 | 0.00 | 0.00 | 0.00 | 74 | 986.3 |
| 20260906122250 | 12 | 165 | 0.0 | 0.0 | 0.00 | 0.00 | 0.00 | 74 | 986.0 |
| 20260906121749 | 12 | 165 | 0.0 | 0.0 | 0.00 | 0.00 | 0.00 | 74 | 986.1 |
| 20260906121247 | 12 | 165 | 0.0 | 0.0 | 0.00 | 0.00 | 0.00 | 74 | 986.0 |
| 20260906120147 | 12 | 207 | 0.0 | 0.0 | 0.00 | 0.00 | 0.00 | 73 | 986.3 |
| 20260906120142 | 12 | 165 | 0.0 | 0.0 | 0.00 | 0.00 | 0.00 | 73 | 986.3 |
| 20260906115142 | 12 | 206 | 0.0 | 0.0 | 0.00 | 0.00 | 0.00 | 73 | 986.1 |
| 20260906114642 | 12 | 207 | 0.0 | 0.0 | 0.00 | 0.00 | 0.00 | 72 | 986.1 |
| 20260906114145 | 12 | 206 | 0.0 | 0.0 | 0.00 | 0.00 | 0.00 | 72 | 986.0 |
| 20260906114140 | 12 | 207 | 0.0 | 0.0 | 0.00 | 0.00 | 0.00 | 72 | 986.0 |
| 20260906113144 | 13 | 206 | 0.0 | 0.0 | 0.00 | 0.00 | 0.00 | 71 | 985.9 |
| 20260906113140 | 13 | 206 | 0.0 | 0.0 | 0.00 | 0.00 | 0.00 | 71 | 986.0 |
| 20260906112139 | 13 | 206 | 0.0 | 0.0 | 0.00 | 0.00 | 0.00 | 70 | 985.9 |
| 20260906111639 | 13 | 206 | 0.0 | 0.0 | 0.00 | 0.00 | 0.00 | 71 | 985.8 |
| 20260906111140 | 13 | 206 | 0.0 | 0.0 | 0.00 | 0.00 | 0.00 | 71 | 985.7 |
| 20260906110638 | 13 | 206 | 0.0 | 0.0 | 0.00 | 0.00 | 0.00 | 71 | 985.8 |
| 20260906110137 | 13 | 206 | 0.0 | 0.0 | 0.00 | 0.00 | 0.00 | 70 | 985.8 |
| 20260906105642 | 14 | 207 | 0.0 | 0.0 | 0.00 | 0.00 | 0.00 | 68 | 985.9 |
| 20260906105638 | 13 | 207 | 0.0 | 0.0 | 0.00 | 0.00 | 0.00 | 69 | 985.9 |
| 20260906104638 | 14 | 207 | 0.0 | 0.0 | 0.00 | 0.00 | 0.00 | 68 | 985.7 |
| 20260906104141 | 13 | 135 | 0.0 | 0.0 | 0.00 | 0.00 | 0.00 | 68 | 985.8 |
| 20260906104137 | 14 | 207 | 0.0 | 0.0 | 0.00 | 0.00 | 0.00 | 68 | 985.7 |
| 20260906103139 | 13 | 214 | 0.0 | 0.0 | 0.00 | 0.00 | 0.00 | 69 | 985.7 |
| 20260906102637 | 13 | 214 | 0.0 | 0.0 | 0.00 | 0.00 | 0.00 | 69 | 985.7 |
| 20260906102138 | 13 | 184 | 0.0 | 0.0 | 0.00 | 0.00 | 0.00 | 69 | 985.9 |
| 20260906101638 | 13 | 148 | 0.0 | 0.0 | 0.00 | 0.00 | 0.00 | 68 | 986.0 |
| 20260906101138 | 14 | 164 | 0.0 | 0.0 | 0.00 | 0.00 | 0.00 | 68 | 986.0 |
| 20260906100637 | 14 | 146 | 0.0 | 0.0 | 0.00 | 0.00 | 0.00 | 68 | 985.9 |
| 20260906100135 | 14 | 147 | 0.0 | 0.0 | 0.00 | 0.00 | 0.00 | 68 | 985.8 |
| 20260906095635 | 14 | 147 | 0.0 | 0.0 | 0.00 | 0.00 | 0.00 | 67 | 985.8 |
| 20260906095136 | 14 | 147 | 0.0 | 0.0 | 0.00 | 0.00 | 0.00 | 67 | 985.7 |
| 20260906094635 | 14 | 147 | 0.0 | 0.0 | 0.00 | 0.00 | 0.00 | 67 | 985.7 |
| 20260906094136 | 15 | 147 | 0.0 | 0.0 | 0.00 | 0.00 | 0.00 | 67 | 985.6 |
| 20260906093635 | 15 | 146 | 0.0 | 0.0 | 0.00 | 0.00 | 0.00 | 66 | 985.7 |
| 20260906093135 | 15 | 145 | 0.0 | 0.0 | 0.00 | 0.00 | 0.00 | 66 | 985.8 |
| 20260906092635 | 15 | 148 | 0.0 | 0.0 | 0.00 | 0.00 | 0.00 | 65 | 985.7 |
| 20260906092136 | 15 | 158 | 0.0 | 0.0 | 0.00 | 0.00 | 0.00 | 64 | 985.8 |
| 20260906091634 | 15 | 142 | 0.0 | 0.0 | 0.00 | 0.00 | 0.00 | 63 | 985.7 |
| 20260906091132 | 15 | 142 | 0.0 | 0.0 | 0.00 | 0.00 | 0.00 | 64 | 985.7 |
| 20260906090634 | 15 | 142 | 0.0 | 0.0 | 0.00 | 0.00 | 0.00 | 65 | 985.6 |
| 20260906090133 | 15 | 142 | 0.0 | 0.0 | 0.00 | 0.00 | 0.00 | 65 | 985.6 |
| 20260906085633 | 15 | 142 | 0.0 | 0.0 | 0.00 | 0.00 | 0.00 | 64 | 985.4 |
| 20260906085133 | 15 | 142 | 0.0 | 0.0 | 0.00 | 0.00 | 0.00 | 64 | 985.4 |
| 20260906084631 | 15 | 142 | 0.0 | 0.0 | 0.00 | 0.00 | 0.00 | 65 | 985.4 |
| 20260906084135 | 15 | 142 | 0.0 | 0.0 | 0.00 | 0.00 | 0.00 | 65 | 985.6 |
| 20260906084131 | 15 | 142 | 0.0 | 0.0 | 0.00 | 0.00 | 0.00 | 65 | 985.4 |
| 20260906083131 | 15 | 142 | 0.0 | 0.0 | 0.00 | 0.00 | 0.00 | 65 | 985.6 |
| 20260906082631 | 15 | 160 | 0.0 | 0.0 | 0.00 | 0.00 | 0.00 | 65 | 985.6 |
| 20260906082129 | 15 | 160 | 0.0 | 0.0 | 0.00 | 0.00 | 0.00 | 64 | 985.7 |
| 20260906081629 | 15 | 159 | 0.0 | 0.0 | 0.00 | 0.00 | 0.00 | 63 | 985.8 |
| 20260906081129 | 15 | 160 | 0.0 | 0.0 | 0.00 | 0.00 | 0.00 | 62 | 985.8 |
| 20260906080629 | 16 | 160 | 0.0 | 0.0 | 0.00 | 0.00 | 0.00 | 62 | 985.8 |
| 20260906080129 | 16 | 156 | 0.0 | 0.0 | 0.00 | 0.00 | 0.00 | 62 | 985.8 |
| 20260906075633 | 16 | 156 | 0.0 | 0.0 | 0.00 | 0.00 | 0.00 | 62 | 985.8 |
| 20260906075628 | 16 | 156 | 0.0 | 0.0 | 0.00 | 0.00 | 0.00 | 62 | 985.8 |
| 20260906074629 | 16 | 156 | 0.0 | 0.0 | 0.00 | 0.00 | 0.00 | 61 | 985.9 |
| 20260906074129 | 16 | 156 | 0.0 | 0.0 | 0.00 | 0.00 | 0.00 | 60 | 985.9 |
| 20260906073628 | 17 | 156 | 0.0 | 0.0 | 0.00 | 0.00 | 0.00 | 58 | 985.9 |
| 20260906073131 | 18 | 156 | 0.0 | 0.0 | 0.00 | 0.00 | 0.00 | 54 | 985.9 |
| 20260906073127 | 17 | 156 | 0.0 | 0.0 | 0.00 | 0.00 | 0.00 | 56 | 985.9 |
| 20260906072131 | 18 | 151 | 0.0 | 0.0 | 0.00 | 0.00 | 0.00 | 55 | 985.8 |
| 20260906072127 | 17 | 151 | 0.0 | 0.0 | 0.00 | 0.00 | 0.00 | 54 | 985.8 |
| 20260906071127 | 18 | 150 | 0.0 | 0.0 | 0.00 | 0.00 | 0.00 | 55 | 985.8 |
| 20260906070626 | 18 | 154 | 0.0 | 0.0 | 0.00 | 0.00 | 0.00 | 55 | 985.7 |
| 20260906070127 | 18 | 158 | 0.0 | 0.0 | 0.00 | 0.00 | 0.00 | 54 | 985.7 |
| 20260906065627 | 19 | 184 | 0.0 | 0.0 | 0.00 | 0.00 | 0.00 | 53 | 985.8 |
| 20260906065126 | 19 | 200 | 0.0 | 1.6 | 0.00 | 0.00 | 0.00 | 52 | 985.7 |
| 20260906064631 | 20 | 238 | 0.0 | 4.8 | 0.00 | 0.00 | 0.00 | 51 | 985.7 |
| 20260906064626 | 20 | 214 | 0.0 | 4.8 | 0.00 | 0.00 | 0.00 | 52 | 985.7 |
| 20260906064125 | 20 | 259 | 0.0 | 4.8 | 0.00 | 0.00 | 0.00 | 51 | 985.7 |
| 20260906063125 | 20 | 207 | 0.0 | 1.6 | 0.00 | 0.00 | 0.00 | 52 | 985.7 |
| 20260906062625 | 20 | 229 | 0.0 | 1.6 | 0.00 | 0.00 | 0.00 | 52 | 985.8 |
| 20260906062125 | 21 | 206 | 0.0 | 3.2 | 0.00 | 0.00 | 0.00 | 52 | 985.8 |
| 20260906061625 | 21 | 246 | 0.0 | 3.2 | 0.00 | 0.00 | 0.00 | 53 | 985.8 |
| 20260906061126 | 21 | 237 | 0.0 | 4.8 | 0.00 | 0.00 | 0.00 | 54 | 985.8 |
| 20260906060627 | 20 | 229 | 0.0 | 1.6 | 0.00 | 0.00 | 0.00 | 62 | 985.8 |
| 20260906060623 | 20 | 236 | 0.0 | 4.8 | 0.00 | 0.00 | 0.00 | 57 | 985.8 |
| 20260906055622 | 20 | 201 | 0.0 | 1.6 | 0.00 | 0.00 | 0.00 | 63 | 985.9 |
| 20260906055123 | 20 | 145 | 0.0 | 0.0 | 0.00 | 0.00 | 0.00 | 64 | 985.9 |
| 20260906054623 | 19 | 151 | 0.0 | 0.0 | 0.00 | 0.00 | 0.00 | 64 | 985.9 |
| 20260906054121 | 19 | 151 | 0.0 | 0.0 | 0.00 | 0.00 | 0.00 | 64 | 985.8 |
| 20260906053620 | 20 | 151 | 0.0 | 1.6 | 0.00 | 0.00 | 0.00 | 63 | 985.8 |
| 20260906053120 | 20 | 150 | 0.0 | 1.6 | 0.00 | 0.00 | 0.00 | 62 | 985.9 |
| 20260906052619 | 20 | 124 | 0.0 | 1.6 | 0.00 | 0.00 | 0.00 | 62 | 985.9 |
| 20260906052119 | 20 | 236 | 0.0 | 0.0 | 0.00 | 0.00 | 0.00 | 62 | 985.8 |
| 20260906051619 | 20 | 236 | 0.0 | 0.0 | 0.00 | 0.00 | 0.00 | 62 | 985.8 |
| 20260906051119 | 20 | 236 | 0.0 | 0.0 | 0.00 | 0.00 | 0.00 | 62 | 985.8 |
| 20260906050620 | 20 | 236 | 0.0 | 0.0 | 0.00 | 0.00 | 0.00 | 62 | 985.9 |
| 20260906050123 | 20 | 236 | 0.0 | 0.0 | 0.00 | 0.00 | 0.00 | 60 | 985.9 |
| 20260906050119 | 20 | 236 | 0.0 | 0.0 | 0.00 | 0.00 | 0.00 | 61 | 985.9 |
| 20260906045120 | 20 | 236 | 0.0 | 0.0 | 0.00 | 0.00 | 0.00 | 59 | 986.0 |
| 20260906044619 | 21 | 236 | 0.0 | 0.0 | 0.00 | 0.00 | 0.00 | 58 | 986.0 |
| 20260906044120 | 21 | 236 | 0.0 | 1.6 | 0.00 | 0.00 | 0.00 | 58 | 986.0 |
| 20260906043624 | 21 | 203 | 0.0 | 0.0 | 0.00 | 0.00 | 0.00 | 58 | 985.9 |
| 20260906043620 | 21 | 236 | 0.0 | 1.6 | 0.00 | 0.00 | 0.00 | 58 | 986.0 |
| 20260906042620 | 21 | 203 | 0.0 | 0.0 | 0.00 | 0.00 | 0.00 | 57 | 986.0 |
| 20260906042119 | 21 | 98 | 0.0 | 0.0 | 0.00 | 0.00 | 0.00 | 57 | 986.0 |
| 20260906041619 | 21 | 98 | 0.0 | 0.0 | 0.00 | 0.00 | 0.00 | 56 | 986.0 |
| 20260906041120 | 22 | 14 | 0.0 | 1.6 | 0.00 | 0.00 | 0.00 | 55 | 985.9 |
| 20260906040619 | 22 | 14 | 0.0 | 1.6 | 0.00 | 0.00 | 0.00 | 55 | 985.9 |
| 20260906040120 | 22 | 355 | 0.0 | 0.0 | 0.00 | 0.00 | 0.00 | 55 | 985.9 |
| 20260906035619 | 22 | 307 | 0.0 | 0.0 | 0.00 | 0.00 | 0.00 | 55 | 985.9 |
| 20260906035123 | 22 | 307 | 0.0 | 0.0 | 0.00 | 0.00 | 0.00 | 54 | 985.9 |
| 20260906035119 | 22 | 307 | 0.0 | 0.0 | 0.00 | 0.00 | 0.00 | 53 | 985.9 |
| 20260906034118 | 22 | 307 | 0.0 | 0.0 | 0.00 | 0.00 | 0.00 | 53 | 985.9 |
| 20260906033618 | 22 | 133 | 0.0 | 0.0 | 0.00 | 0.00 | 0.00 | 53 | 985.9 |
| 20260906033117 | 22 | 9 | 0.0 | 1.6 | 0.00 | 0.00 | 0.00 | 52 | 985.9 |
| 20260906032617 | 22 | 211 | 1.6 | 8.0 | 0.00 | 0.00 | 0.00 | 50 | 985.8 |
| 20260906032117 | 22 | 168 | 3.2 | 9.7 | 0.00 | 0.00 | 0.00 | 49 | 985.8 |
| 20260906031617 | 22 | 186 | 3.2 | 11.3 | 0.00 | 0.00 | 0.00 | 48 | 985.6 |
| 20260906031117 | 22 | 196 | 4.8 | 17.7 | 0.00 | 0.00 | 0.00 | 46 | 985.4 |
| 20260906030618 | 21 | 166 | 4.8 | 17.7 | 0.00 | 0.00 | 0.00 | 51 | 985.4 |
| 20260906030122 | 20 | 180 | 0.0 | 9.7 | 0.00 | 0.00 | 0.00 | 44 | 985.2 |
| 20260906030118 | 20 | 159 | 1.6 | 14.5 | 0.00 | 0.00 | 0.00 | 47 | 985.2 |
| 20260906025723 | 20 | 172 | 0.0 | 0.0 | 0.00 | 0.00 | 0.00 | 43 | 984.6 |
| 20260906025116 | 20 | 129 | 0.0 | 0.0 | 0.00 | 0.00 | 0.00 | 43 | 984.6 |
| 20260906024121 | 20 | 169 | 0.0 | 0.0 | 0.00 | 0.00 | 0.00 | 42 | 984.6 |
| 20260906024117 | 21 | 139 | 0.0 | 0.0 | 0.00 | 0.00 | 0.00 | 41 | 984.5 |
| 20260906023114 | 21 | 133 | 0.0 | 1.6 | 0.00 | 0.00 | 0.00 | 41 | 984.5 |
| 20260906022613 | 21 | 133 | 0.0 | 1.6 | 0.00 | 0.00 | 0.00 | 39 | 984.5 |
| 20260906022113 | 22 | 133 | 0.0 | 0.0 | 0.00 | 0.00 | 0.00 | 39 | 984.6 |
| 20260906021614 | 22 | 133 | 0.0 | 0.0 | 0.00 | 0.00 | 0.00 | 38 | 984.6 |
| 20260906021113 | 22 | 133 | 0.0 | 0.0 | 0.00 | 0.00 | 0.00 | 37 | 984.5 |
| 20260906020613 | 23 | 133 | 0.0 | 0.0 | 0.00 | 0.00 | 0.00 | 36 | 984.4 |
| 20260906020115 | 23 | 133 | 0.0 | 0.0 | 0.00 | 0.00 | 0.00 | 35 | 984.3 |
| 20260906020111 | 23 | 133 | 0.0 | 0.0 | 0.00 | 0.00 | 0.00 | 34 | 984.3 |
| 20260906015718 | 24 | 133 | 0.0 | 0.0 | 0.00 | 0.00 | 0.00 | 33 | 984.3 |
| 20260906014611 | 25 | 148 | 0.0 | 0.0 | 0.00 | 0.00 | 0.00 | 33 | 984.1 |
| 20260906014110 | 25 | 218 | 0.0 | 1.6 | 0.00 | 0.00 | 0.00 | 32 | 984.1 |
| 20260906013611 | 25 | 218 | 0.0 | 1.6 | 0.00 | 0.00 | 0.00 | 31 | 984.1 |
| 20260906013109 | 25 | 199 | 0.0 | 0.0 | 0.00 | 0.00 | 0.00 | 31 | 984.0 |
| 20260906012609 | 26 | 193 | 0.0 | 0.0 | 0.00 | 0.00 | 0.00 | 30 | 984.1 |
| 20260906012110 | 26 | 193 | 0.0 | 3.2 | 0.00 | 0.00 | 0.00 | 30 | 984.0 |
| 20260906011610 | 26 | 202 | 0.0 | 3.2 | 0.00 | 0.00 | 0.00 | 29 | 984.1 |
| 20260906011109 | 27 | 179 | 0.0 | 3.2 | 0.00 | 0.00 | 0.00 | 28 | 984.1 |
| 20260906010609 | 27 | 163 | 1.6 | 6.4 | 0.00 | 0.00 | 0.00 | 28 | 984.1 |
| 20260906010110 | 27 | 155 | 1.6 | 6.4 | 0.00 | 0.00 | 0.00 | 27 | 984.1 |
| 20260906005608 | 27 | 216 | 1.6 | 6.4 | 0.00 | 0.00 | 0.00 | 27 | 984.4 |
| 20260906005111 | 28 | 188 | 1.6 | 6.4 | 0.00 | 0.00 | 0.00 | 26 | 984.4 |
| 20260906005107 | 28 | 192 | 0.0 | 6.4 | 0.00 | 0.00 | 0.00 | 27 | 984.3 |
| 20260906004106 | 28 | 194 | 1.6 | 8.0 | 0.00 | 0.00 | 0.00 | 26 | 984.4 |
| 20260906003612 | 28 | 200 | 1.6 | 6.4 | 0.00 | 0.00 | 0.00 | 26 | 984.4 |
| 20260906003607 | 29 | 205 | 0.0 | 8.0 | 0.00 | 0.00 | 0.00 | 26 | 984.4 |
| 20260906003212 | 29 | 197 | 1.6 | 8.0 | 0.00 | 0.00 | 0.00 | 27 | 984.3 |
| 20260906002607 | 29 | 217 | 1.6 | 8.0 | 0.00 | 0.00 | 0.00 | 26 | 984.3 |
| 20260906001608 | 28 | 157 | 3.2 | 11.3 | 0.00 | 0.00 | 0.00 | 27 | 984.3 |
| 20260906001108 | 28 | 149 | 4.8 | 11.3 | 0.00 | 0.00 | 0.00 | 26 | 984.3 |
| 20260906000606 | 29 | 163 | 4.8 | 11.3 | 0.00 | 0.00 | 0.00 | 27 | 984.4 |
| 20260906000107 | 29 | 189 | 4.8 | 9.7 | 0.00 | 0.00 | 0.00 | 26 | 984.3 |
| 20260905235607 | 30 | 162 | 4.8 | 11.3 | 0.00 | 0.00 | 0.00 | 26 | 984.3 |
| 20260905235107 | 30 | 150 | 3.2 | 11.3 | 0.00 | 0.00 | 0.00 | 26 | 984.0 |
| 20260905234607 | 29 | 191 | 1.6 | 9.7 | 0.00 | 0.00 | 0.00 | 27 | 984.0 |
| 20260905234107 | 28 | 207 | 0.0 | 3.2 | 0.00 | 0.00 | 0.00 | 29 | 984.1 |
| 20260905233607 | 27 | 187 | 0.0 | 4.8 | 0.00 | 0.00 | 0.00 | 29 | 984.1 |
| 20260905233107 | 27 | 179 | 1.6 | 6.4 | 0.00 | 0.00 | 0.00 | 28 | 984.1 |
| 20260905232608 | 27 | 159 | 3.2 | 9.7 | 0.00 | 0.00 | 0.00 | 28 | 984.0 |
| 20260905232109 | 28 | 158 | 4.8 | 12.9 | 0.00 | 0.00 | 0.00 | 28 | 984.1 |
| 20260905231608 | 28 | 184 | 6.4 | 12.9 | 0.00 | 0.00 | 0.00 | 28 | 984.0 |
| 20260905231107 | 28 | 207 | 4.8 | 12.9 | 0.00 | 0.00 | 0.00 | 28 | 984.0 |
| 20260905230606 | 28 | 173 | 1.6 | 12.9 | 0.00 | 0.00 | 0.00 | 27 | 984.0 |
| 20260905230106 | 29 | 78 | 1.6 | 12.9 | 0.00 | 0.00 | 0.00 | 26 | 984.0 |
| 20260905225605 | 29 | 75 | 1.6 | 12.9 | 0.00 | 0.00 | 0.00 | 25 | 983.9 |
| 20260905225105 | 30 | 260 | 0.0 | 3.2 | 0.00 | 0.00 | 0.00 | 25 | 983.9 |
| 20260905224605 | 30 | 150 | 0.0 | 3.2 | 0.00 | 0.00 | 0.00 | 25 | 983.9 |
| 20260905224104 | 30 | 280 | 0.0 | 3.2 | 0.00 | 0.00 | 0.00 | 25 | 984.0 |
| 20260905223605 | 30 | 120 | 0.0 | 6.4 | 0.00 | 0.00 | 0.00 | 25 | 984.1 |
| 20260905223102 | 30 | 120 | 0.0 | 6.4 | 0.00 | 0.00 | 0.00 | 25 | 984.1 |
| 20260905222602 | 30 | 220 | 0.0 | 4.8 | 0.00 | 0.00 | 0.00 | 24 | 984.1 |
| 20260905222103 | 30 | 143 | 0.0 | 1.6 | 0.00 | 0.00 | 0.00 | 25 | 984.0 |
| 20260905221605 | 31 | 252 | 0.0 | 1.6 | 0.00 | 0.00 | 0.00 | 24 | 984.1 |
| 20260905221601 | 30 | 182 | 0.0 | 1.6 | 0.00 | 0.00 | 0.00 | 23 | 984.1 |
| 20260905220600 | 31 | 0 | 0.0 | 4.8 | 0.00 | 0.00 | 0.00 | 23 | 984.1 |
| 20260905220058 | 30 | 348 | 0.0 | 4.8 | 0.00 | 0.00 | 0.00 | 24 | 984.1 |
| 20260905215603 | 31 | 291 | 0.0 | 3.2 | 0.00 | 0.00 | 0.00 | 23 | 984.3 |
| 20260905215559 | 30 | 319 | 0.0 | 3.2 | 0.00 | 0.00 | 0.00 | 23 | 984.1 |
| 20260905214559 | 31 | 155 | 0.0 | 3.2 | 0.00 | 0.00 | 0.00 | 23 | 984.3 |
| 20260905214058 | 31 | 271 | 0.0 | 3.2 | 0.00 | 0.00 | 0.00 | 22 | 984.4 |
| 20260905213556 | 32 | 201 | 0.0 | 3.2 | 0.00 | 0.00 | 0.00 | 23 | 984.4 |
| 20260905213057 | 32 | 263 | 1.6 | 6.4 | 0.00 | 0.00 | 0.00 | 22 | 984.3 |
| 20260905212557 | 32 | 320 | 1.6 | 6.4 | 0.00 | 0.00 | 0.00 | 21 | 984.3 |
| 20260905212057 | 32 | 185 | 1.6 | 14.5 | 0.00 | 0.00 | 0.00 | 23 | 984.3 |
| 20260905211600 | 32 | 13 | 1.6 | 4.8 | 0.00 | 0.00 | 0.00 | 21 | 984.4 |
| 20260905211556 | 32 | 339 | 1.6 | 14.5 | 0.00 | 0.00 | 0.00 | 21 | 984.4 |
| 20260905210557 | 33 | 300 | 0.0 | 4.8 | 0.00 | 0.00 | 0.00 | 22 | 984.5 |
| 20260905210100 | 32 | 212 | 0.0 | 16.1 | 0.00 | 0.00 | 0.00 | 22 | 984.6 |
| 20260905210056 | 33 | 139 | 0.0 | 3.2 | 0.00 | 0.00 | 0.00 | 21 | 984.5 |
| 20260905205702 | 31 | 170 | 0.0 | 16.1 | 0.00 | 0.00 | 0.00 | 23 | 984.6 |
| 20260905204600 | 31 | 212 | 0.0 | 6.4 | 0.00 | 0.00 | 0.00 | 23 | 984.7 |
| 20260905204556 | 31 | 353 | 0.0 | 6.4 | 0.00 | 0.00 | 0.00 | 23 | 984.7 |
| 20260905203557 | 31 | 8 | 0.0 | 4.8 | 0.00 | 0.00 | 0.00 | 24 | 985.0 |
| 20260905203057 | 31 | 293 | 0.0 | 4.8 | 0.00 | 0.00 | 0.00 | 23 | 984.8 |
| 20260905202600 | 30 | 299 | 0.0 | 6.4 | 0.00 | 0.00 | 0.00 | 23 | 985.1 |
| 20260905202556 | 30 | 290 | 0.0 | 6.4 | 0.00 | 0.00 | 0.00 | 24 | 985.0 |
| 20260905201557 | 30 | 210 | 0.0 | 1.6 | 0.00 | 0.00 | 0.00 | 23 | 985.0 |
| 20260905201101 | 31 | 268 | 0.0 | 3.2 | 0.00 | 0.00 | 0.00 | 24 | 985.0 |
| 20260905201057 | 31 | 267 | 0.0 | 3.2 | 0.00 | 0.00 | 0.00 | 24 | 985.1 |
| 20260905200057 | 30 | 173 | 0.0 | 3.2 | 0.00 | 0.00 | 0.00 | 25 | 985.0 |
| 20260905195556 | 30 | 129 | 0.0 | 4.8 | 0.00 | 0.00 | 0.00 | 24 | 985.1 |
| 20260905195101 | 30 | 292 | 1.6 | 6.4 | 0.00 | 0.00 | 0.00 | 23 | 985.2 |
| 20260905195057 | 30 | 143 | 0.0 | 6.4 | 0.00 | 0.00 | 0.00 | 24 | 985.2 |
| 20260905194057 | 31 | 335 | 1.6 | 6.4 | 0.00 | 0.00 | 0.00 | 22 | 985.3 |
| 20260905193556 | 32 | 278 | 0.0 | 6.4 | 0.00 | 0.00 | 0.00 | 23 | 985.2 |
| 20260905193056 | 31 | 264 | 1.6 | 12.9 | 0.00 | 0.00 | 0.00 | 24 | 985.2 |
| 20260905192557 | 31 | 59 | 3.2 | 16.1 | 0.00 | 0.00 | 0.00 | 24 | 985.3 |
| 20260905192101 | 31 | 96 | 1.6 | 17.7 | 0.00 | 0.00 | 0.00 | 23 | 985.3 |
| 20260905192057 | 31 | 19 | 4.8 | 17.7 | 0.00 | 0.00 | 0.00 | 23 | 985.3 |
| 20260905191056 | 31 | 283 | 1.6 | 8.0 | 0.00 | 0.00 | 0.00 | 23 | 985.3 |
| 20260905190601 | 31 | 290 | 0.0 | 6.4 | 0.00 | 0.00 | 0.00 | 25 | 985.4 |
| 20260905190557 | 31 | 266 | 1.6 | 8.0 | 0.00 | 0.00 | 0.00 | 23 | 985.4 |
| 20260905185556 | 31 | 285 | 0.0 | 6.4 | 0.00 | 0.00 | 0.00 | 24 | 985.4 |
| 20260905185056 | 31 | 117 | 0.0 | 4.8 | 0.00 | 0.00 | 0.00 | 24 | 985.4 |
| 20260905184558 | 31 | 183 | 1.6 | 8.0 | 0.00 | 0.00 | 0.00 | 24 | 985.6 |
| 20260905184057 | 31 | 141 | 1.6 | 8.0 | 0.00 | 0.00 | 0.00 | 24 | 985.6 |
| 20260905183556 | 31 | 287 | 0.0 | 9.7 | 0.00 | 0.00 | 0.00 | 25 | 985.6 |
| 20260905183057 | 31 | 300 | 0.0 | 9.7 | 0.00 | 0.00 | 0.00 | 26 | 985.7 |
| 20260905182557 | 31 | 248 | 0.0 | 6.4 | 0.00 | 0.00 | 0.00 | 25 | 985.8 |
| 20260905182054 | 31 | 141 | 0.0 | 3.2 | 0.00 | 0.00 | 0.00 | 25 | 985.8 |
| 20260905181554 | 31 | 153 | 0.0 | 3.2 | 0.00 | 0.00 | 0.00 | 25 | 985.8 |
| 20260905181052 | 30 | 278 | 0.0 | 4.8 | 0.00 | 0.00 | 0.00 | 25 | 985.9 |
| 20260905180553 | 30 | 177 | 1.6 | 9.7 | 0.00 | 0.00 | 0.00 | 26 | 986.0 |
| 20260905180052 | 30 | 322 | 1.6 | 9.7 | 0.00 | 0.00 | 0.00 | 26 | 986.0 |
| 20260905175552 | 30 | 267 | 0.0 | 4.8 | 0.00 | 0.00 | 0.00 | 25 | 985.9 |
| 20260905175051 | 30 | 248 | 0.0 | 6.4 | 0.00 | 0.00 | 0.00 | 26 | 986.0 |
| 20260905174550 | 30 | 297 | 1.6 | 8.0 | 0.00 | 0.00 | 0.00 | 27 | 986.0 |
| 20260905174050 | 30 | 248 | 1.6 | 8.0 | 0.00 | 0.00 | 0.00 | 27 | 986.1 |
| 20260905173554 | 29 | 257 | 0.0 | 6.4 | 0.00 | 0.00 | 0.00 | 27 | 986.1 |
| 20260905173550 | 30 | 319 | 0.0 | 3.2 | 0.00 | 0.00 | 0.00 | 26 | 986.1 |
| 20260905173154 | 28 | 181 | 0.0 | 3.2 | 0.00 | 0.00 | 0.00 | 29 | 986.4 |
| 20260905172548 | 28 | 293 | 0.0 | 6.4 | 0.00 | 0.00 | 0.00 | 28 | 986.3 |
| 20260905171549 | 28 | 321 | 0.0 | 1.6 | 0.00 | 0.00 | 0.00 | 27 | 986.4 |
| 20260905171049 | 28 | 255 | 0.0 | 8.0 | 0.00 | 0.00 | 0.00 | 28 | 986.1 |
| 20260905170548 | 28 | 29 | 1.6 | 9.7 | 0.00 | 0.00 | 0.00 | 28 | 986.1 |
| 20260905170048 | 27 | 168 | 3.2 | 11.3 | 0.00 | 0.00 | 0.00 | 29 | 986.1 |
| 20260905165548 | 27 | 21 | 3.2 | 11.3 | 0.00 | 0.00 | 0.00 | 28 | 986.1 |
| 20260905165048 | 27 | 17 | 0.0 | 6.4 | 0.00 | 0.00 | 0.00 | 28 | 986.1 |
| 20260905164548 | 27 | 146 | 1.6 | 9.7 | 0.00 | 0.00 | 0.00 | 29 | 986.3 |
| 20260905164046 | 27 | 311 | 1.6 | 9.7 | 0.00 | 0.00 | 0.00 | 28 | 986.1 |
| 20260905163546 | 27 | 326 | 1.6 | 9.7 | 0.00 | 0.00 | 0.00 | 30 | 986.1 |
| 20260905163046 | 26 | 323 | 1.6 | 9.7 | 0.00 | 0.00 | 0.00 | 30 | 986.1 |
| 20260905162546 | 26 | 343 | 1.6 | 8.0 | 0.00 | 0.00 | 0.00 | 30 | 986.1 |
| 20260905162046 | 26 | 30 | 1.6 | 4.8 | 0.00 | 0.00 | 0.00 | 30 | 986.3 |
| 20260905161550 | 26 | 23 | 1.6 | 8.0 | 0.00 | 0.00 | 0.00 | 30 | 986.1 |
| 20260905161546 | 26 | 15 | 1.6 | 8.0 | 0.00 | 0.00 | 0.00 | 29 | 986.1 |
| 20260905160546 | 26 | 311 | 1.6 | 6.4 | 0.00 | 0.00 | 0.00 | 32 | 986.1 |
| 20260905160047 | 25 | 348 | 3.2 | 8.0 | 0.00 | 0.00 | 0.00 | 31 | 986.0 |
| 20260905155548 | 25 | 335 | 1.6 | 8.0 | 0.00 | 0.00 | 0.00 | 32 | 986.0 |
| 20260905155544 | 25 | 321 | 3.2 | 8.0 | 0.00 | 0.00 | 0.00 | 32 | 985.9 |
| 20260905154543 | 25 | 328 | 3.2 | 8.0 | 0.00 | 0.00 | 0.00 | 31 | 985.9 |
| 20260905154044 | 25 | 7 | 3.2 | 11.3 | 0.00 | 0.00 | 0.00 | 31 | 985.9 |
| 20260905153542 | 25 | 310 | 3.2 | 11.3 | 0.00 | 0.00 | 0.00 | 30 | 986.0 |
| 20260905153043 | 25 | 333 | 3.2 | 9.7 | 0.00 | 0.00 | 0.00 | 32 | 986.0 |
| 20260905152546 | 25 | 320 | 0.0 | 6.4 | 0.00 | 0.00 | 0.00 | 33 | 986.0 |
| 20260905152542 | 25 | 2 | 1.6 | 9.7 | 0.00 | 0.00 | 0.00 | 31 | 986.0 |
| 20260905151542 | 24 | 302 | 0.0 | 4.8 | 0.00 | 0.00 | 0.00 | 34 | 986.0 |
| 20260905151042 | 24 | 225 | 0.0 | 4.8 | 0.00 | 0.00 | 0.00 | 36 | 986.0 |
| 20260905150546 | 23 | 1 | 0.0 | 6.4 | 0.00 | 0.00 | 0.00 | 36 | 986.0 |
| 20260905150542 | 23 | 331 | 0.0 | 3.2 | 0.00 | 0.00 | 0.00 | 36 | 986.0 |
| 20260905145542 | 23 | 333 | 0.0 | 6.4 | 0.00 | 0.00 | 0.00 | 37 | 986.0 |
| 20260905145045 | 22 | 231 | 0.0 | 6.4 | 0.00 | 0.00 | 0.00 | 41 | 986.1 |
| 20260905145041 | 22 | 281 | 0.0 | 3.2 | 0.00 | 0.00 | 0.00 | 39 | 986.1 |
| 20260905144042 | 22 | 243 | 1.6 | 6.4 | 0.00 | 0.00 | 0.00 | 42 | 986.0 |
| 20260905143541 | 21 | 311 | 0.0 | 4.8 | 0.00 | 0.00 | 0.00 | 43 | 986.0 |
| 20260905143046 | 20 | 326 | 0.0 | 4.8 | 0.00 | 0.00 | 0.00 | 47 | 986.0 |
| 20260905143042 | 21 | 299 | 0.0 | 4.8 | 0.00 | 0.00 | 0.00 | 44 | 986.0 |
| 20260905142045 | 19 | 305 | 0.0 | 4.8 | 0.00 | 0.00 | 0.00 | 49 | 986.0 |
| 20260905142041 | 18 | 320 | 0.0 | 1.6 | 0.00 | 0.00 | 0.00 | 55 | 985.9 |
| 20260905141040 | 17 | 160 | 0.0 | 0.0 | 0.00 | 0.00 | 0.00 | 60 | 985.8 |
| 20260905140540 | 16 | 162 | 0.0 | 0.0 | 0.00 | 0.00 | 0.00 | 64 | 985.8 |
| 20260905140039 | 16 | 162 | 0.0 | 0.0 | 0.00 | 0.00 | 0.00 | 65 | 985.7 |
| 20260905135540 | 16 | 162 | 0.0 | 0.0 | 0.00 | 0.00 | 0.00 | 67 | 985.7 |